This is the latest recevied weather packets stored in our database for station/object EA1CZ-10. If no packets are shown the sender has not sent any weather packets the latest 10 day(s).
| Time | Temp. | Humidity | Pressure | Rain* | Wind** | Luminosity | Snow |
|---|---|---|---|---|---|---|---|
| 1778117686 | 4.44° C | 70% | 1025.5 hPa | - | - | - | - |
| 1778115886 | 4.44° C | 70% | 1025.7 hPa | - | - | - | - |
| 1778114086 | 7.22° C | 69% | 1026 hPa | - | - | - | - |
| 1778112286 | 7.78° C | 69% | 1026.1 hPa | - | - | - | - |
| 1778110485 | 6.11° C | 69% | 1026.4 hPa | - | - | - | - |
| 1778108685 | 7.78° C | 69% | 1026.7 hPa | - | - | - | - |
| 1778106885 | 7.78° C | 69% | 1026.6 hPa | - | - | - | - |
| 1778105085 | 7.78° C | 69% | 1027 hPa | - | - | - | - |
| 1778103285 | 6.67° C | 70% | 1027 hPa | - | - | - | - |
| 1778101485 | 6.11° C | 69% | 1027.1 hPa | - | - | - | - |
| 1778099685 | 5.56° C | 70% | 1027.1 hPa | - | - | - | - |
| 1778097885 | 5.56° C | 69% | 1026.9 hPa | - | - | - | - |
| 1778096085 | 7.78° C | 69% | 1026.8 hPa | - | - | - | - |
| 1778094285 | 7.22° C | 69% | 1026.7 hPa | - | - | - | - |
| 1778092485 | 6.67° C | 69% | 1026.6 hPa | - | - | - | - |
| 1778090684 | 6.11° C | 69% | 1026.6 hPa | - | - | - | - |
| 1778088884 | 7.22° C | 68% | 1026.6 hPa | - | - | - | - |
| 1778087084 | 11.11° C | 67% | 1026.7 hPa | - | - | - | - |
| 1778085284 | 12.22° C | 67% | 1026.7 hPa | - | - | - | - |
| 1778083484 | 12.22° C | 67% | 1026.7 hPa | - | - | - | - |
| 1778081684 | 12.78° C | 66% | 1026.6 hPa | - | - | - | - |
| 1778078089 | 12.78° C | 67% | 1027.3 hPa | - | - | - | - |
| 1778076289 | 16.11° C | 66% | 1027.4 hPa | - | - | - | - |
| 1778074489 | 16.11° C | 66% | 1027.6 hPa | - | - | - | - |
| 1778072689 | 15° C | 67% | 1027.7 hPa | - | - | - | - |
* Rain since midnight (hover to see other rain measurements)
** Current wind speed in m/s (hover to see current wind gust speed)